OBJECT N, 44891

Orbit data source: Space-Track

You're viewing an Uncataloged Satellite

Recently launched and/or uncataloged satellites may have evolving metadata. Metadata may include but not limited to: Owner, Maufacturer, Bus, Motor, and Mission.

OBJECT N, 44891 is a satellite in SSO that was launched on Fri, 20 Dec 2019 UTC launched from the Taiyaun Space Center, China (TSC). Unknown objects in Earth's orbit typically refer to objects detected orbiting the Earth but have not yet been identified or cataloged. These objects could be anything from previously untracked satellites, spent rocket stages, debris from satellite collisions, or even natural meteoroids temporarily captured by Earth's gravity.

Loading next visibility...
Identifier
44891, 2019-093N
Orbit
SSO
Country
Flag of TBDTBD
Related business
Manufacturer
SAST
Mission
Spacecraft
Bus & Motor
Unknown
Mass
Unknown
Launch date (UTC)
2019-12-20 (6 years ago)
Launch vehicle
Unknown
Launch site
Taiyaun Space Center, China (TSC)
Object type
Unknown
Shape & HBR
Unknown shape, 0.1 m
Radar Cross Section
Medium (>0.1 m² and <1 m²)

Expand to show TLE details & history
Last TLE update: 5 days ago

TLE from 5 days ago
0 OBJECT N
1 44891U 19093N   26155.17318530  .00028187  00000-0  84688-3 0  9998
2 44891  98.0601 320.7559 0006844  92.9050 267.2974 15.34366914352784
Epoch: 2026-06-04T04:09Z
TLE epoch observation values (Epoch: 2026-06-04T04:09:23.209Z)
Latitude
-0.00008°
Longitude
5.78795°
Altitude
466.116 km
Speed
7.633 km/s
True Right ascension
21h 23m 01s
True Declination
0° 00' 00"
Sunlit
Object was in daylight at epoch
Visualization orbit readout
Latitude
Unknown
Longitude
Unknown
Altitude
Unknown
Speed
Unknown
Apparent Right ascension
Unknown
Apparent Declination
Unknown
Sunlit
N/A
Visualization observer readout
Local Sidereal Time
00:39:28
Azimuth
Unknown
Elevation
Unknown
Doppler factor
Unknown
Orbital elements
Apogee altitude
464.458 km
Perigee altitude
455.098 km
Semi-major axis
6,837.915 km
Eccentricity
0.00068
Inclination
98.0601°
RAAN
320.7559°
Arg. of periapsis
92.905°
True anomaly
267.21906°
Mean anomaly
267.2974°
Eccentric anomaly
267.25823°
Mean motion
3.83847 °/min
Orbital period
93.79 mins
BSTAR
0.00084688
Loading maneuver chart data...
Computing Atmospheric mass density...
Loading historical data...
Loading historical data...
Loading historical data...
Loading historical data...
Loading historical data...
Loading historical data...
Loading historical data...

Documentation

Showing up to 5 results
|